Airfield :
LOGIN :

Register | Disclaimer

   EN    FR    IT 

 










Legend :    VFR   Marginal VFR   IFR   Intensive IFR   Very Intensive IFR
Visi :
Ceiling :
>= 8 km
>= 3000ft
5 to 8 km
1000 to 3000 ft
1500m to 5 km
500 to 1000 ft
800 to 1500m
200 to 500 ft
< 800m
< 200 ft
Symbols :   Thunderstorms  Fog  Heavy snow  Heavy precipitations  Wind > 20 kt
SIGMETs :     Misc.  Thunderstorms  Icing  Turbulence  Mountain Waves  Volcanic Ashes







- Airport Elevation : 24 ft
- IATA code : FAO


LPFR - Faro

CURRENT METAR :
  • 220030Z 34013KT CAVOK 21/12 Q1014

EXPIRED METARs :
  • 220000Z 34013KT CAVOK 21/12 Q1014
  • 212330Z 34014KT CAVOK 21/13 Q1014
  • 212300Z 33013KT CAVOK 22/13 Q1014
  • 212230Z 33014KT CAVOK 22/13 Q1014
  • 212200Z 33013KT CAVOK 22/13 Q1014

TAF TAF LPFR
Valid from the 22 at 00:00 until the 23 at 00:00 UTC


212300Z 2200/2224 33013KT CAVOK
BECMG 2200/2203 33007KT
BECMG 2209/2212 24010KT
BECMG 2218/2220 32010KT
No reported NOTAMs for that airfield.



MET'MAP, your aeronautical weather chart ! - Copyright ORBIFLY December 2007 - Disclaimer

ORBIFLY MET'MAP TEAM :

Programming & Development : Alexandra Zaïnal
Concept & Development : Baudouin d'Aumeries
Co-Development & Prog : Marc-Olivier Méhu
Technical & hardware support : Manuel Goepfert

Contact : metmap@orbifly.com




SOURCES & CREDITS :

   NOAA